Wind_Speed
95 97 98 97 99 96 95 96 100 98 96 98 87 90 85 77 76 72 64 66 61 69 70 67 68 70 74 77 78 78 77 78 79 82 82 80 82 84 86 86 85 87 88 90 90 87 88 87 90
90 95 97 96 95 95 96 100 97 93 100 98 96 89 89 82 84 81 75 71 71 72 74 73 75 79 80 77 76 79 79 79 73 75 75 79 80 79 81 87 86 87 89 85 82 80 86 87 83
84 88 94 91 90 90 97 98 95 91 95 96 92 87 85 85 85 81 72 69 70 67 70 73 75 76 70 74 78 71 68 71 70 73 77 79 77 79 84 82 83 83 81 74 78 82 85 79 81
75 82 87 83 83 82 95 94 82 86 92 90 81 81 83 82 82 80 71 61 52 57 63 70 73 68 73 59 63 65 68 71 77 78 75 74 72 81 83 76 72 71 76 84 85 88 77 78 81
73 76 76 77 74 77 87 77 80 75 81 74 75 75 78 79 79 77 67 57 63 60 60 62 69 73 73 77 78 76 75 73 71 72 72 75 77 66 64 69 77 85 81 87 78 73 72 74 75
64 68 67 68 68 75 73 64 69 63 69 66 66 70 73 75 73 73 72 68 54 54 54 57 60 70 71 68 71 72 55 62 58 59 64 69 61 66 76 83 85 80 81 76 77 77 80 74 71
59 61 60 64 62 65 53 61 49 42 56 48 63 64 55 55 62 66 66 65 58 55 50 63 68 66 63 58 50 55 61 60 59 65 64 63 65 81 84 79 78 84 75 79 77 75 68 71 74
51 53 53 54 55 50 38 40 47 55 62 56 65 66 63 54 54 55 56 51 41 31 44 54 66 50 44 51 57 57 56 61 64 65 70 82 78 80 76 80 79 76 79 74 68 66 73 78 76
49 45 44 50 48 34 31 27 40 52 54 55 56 55 53 51 51 52 37 25 32 48 55 63 60 46 52 57 58 60 62 62 69 77 81 78 77 78 77 76 80 82 78 76 78 81 80 79 76
40 39 45 40 38 30 23 29 48 44 48 50 52 54 49 47 49 47 37 39 39 50 64 59 53 54 56 60 63 71 79 79 76 74 73 72 75 75 81 80 82 76 84 83 82 80 82 82 83
36 40 39 34 29 36 34 50 54 50 50 45 46 49 50 48 47 47 43 55 55 61 66 67 68 71 72 73 81 75 70 68 67 67 66 72 76 81 83 82 81 83 78 81 87 84 82 84 81
30 33 33 32 32 50 50 51 46 50 46 18 25 35 44 46 48 50 50 50 62 72 73 75 74 80 81 80 83 80 84 82 82 75 81 85 85 83 82 84 85 84 88 88 85 85 86 81 70
27 28 27 21 30 44 53 47 45 48 40 30 21 36 28 36 38 42 43 54 67 71 74 76 82 87 84 83 79 82 77 83 81 79 77 80 79 83 82 87 89 91 90 90 88 85 72 71 70
19 21 19 29 28 33 41 47 51 46 41 36 34 27 26 27 25 29 37 45 57 63 72 78 81 81 81 83 80 78 80 78 80 80 78 79 83 86 87 88 87 88 92 89 83 71 73 74 74
25 25 27 25 25 27 32 41 47 40 28 27 36 36 27 23 21 20 20 30 39 40 41 48 56 67 83 88 87 90 80 75 79 82 81 81 84 85 86 89 90 90 85 76 74 73 72 72 73
26 26 29 25 28 30 29 29 28 28 30 26 31 26 21 21 24 31 27 33 33 50 52 51 51 58 59 61 61 61 64 67 73 76 83 86 88 89 89 89 80 77 76 76 80 80 79 82 88
30 30 28 29 28 27 28 23 20 23 21 24 24 23 25 29 33 34 41 38 46 44 47 54 57 60 64 64 66 66 68 73 76 81 79 81 82 83 75 74 76 75 76 79 83 90 92 90 95
32 37 31 26 26 20 19 17 19 20 21 26 32 27 36 37 30 41 43 44 43 43 44 48 54 57 57 63 68 68 67 69 67 71 69 71 71 67 67 72 76 81 81 87 91 93 94 99 95
30 33 29 23 19 21 25 24 20 23 25 24 23 30 38 41 40 38 45 48 53 52 53 54 57 59 63 62 62 64 64 61 59 60 59 62 65 67 70 74 79 85 88 90 90 91 89 88 83
31 30 25 22 21 23 23 25 26 26 26 27 29 32 39 40 43 49 52 55 54 55 55 58 60 58 52 51 51 51 50 48 47 51 57 62 67 72 76 80 82 83 84 84 82 80 75 72 70
30 27 24 26 25 25 25 27 28 31 29 35 38 40 43 46 47 50 49 49 51 56 49 46 44 43 42 40 38 39 41 43 47 51 52 56 64 68 70 71 71 71 70 70 72 70 69 72 75
26 21 20 20 24 22 31 34 30 31 33 37 43 47 48 51 50 53 55 54 45 41 38 39 33 31 33 35 37 40 42 45 47 48 51 57 62 65 66 67 68 70 71 73 76 77 78 79 81
22 19 16 20 21 25 27 28 26 27 33 36 40 40 41 38 36 37 37 37 37 32 27 27 28 32 33 35 37 38 39 40 45 48 51 56 58 62 66 68 71 71 72 75 77 79 81 83 85
26 23 22 24 26 26 31 34 29 35 33 31 38 33 32 30 31 33 30 27 23 24 26 28 28 29 34 35 36 38 42 45 50 56 59 65 65 68 66 66 68 71 74 76 78 81 84 88 93
22 22 23 24 33 34 33 35 37 24 35 27 31 29 29 27 22 20 20 24 25 26 27 28 29 33 36 38 39 44 49 54 58 63 67 70 73 75 72 71 72 75 77 79 82 85 89 94 101
28 29 31 31 36 31 34 33 29 27 27 25 26 25 23 20 20 21 22 24 25 27 30 32 33 37 43 44 47 50 55 61 68 70 75 78 80 80 74 75 76 77 79 82 88 93 98 102 108
26 29 33 35 37 30 28 24 25 24 25 26 26 26 24 23 22 23 25 27 29 31 34 36 37 42 48 49 54 58 62 68 72 75 77 81 85 81 78 78 79 81 85 89 95 100 104 107 110
31 31 33 29 28 27 21 27 23 25 24 26 26 25 25 25 26 28 29 30 34 37 41 43 43 48 54 57 60 64 68 73 77 80 84 87 86 82 81 82 84 87 92 98 103 107 110 111 113
32 32 28 28 27 26 25 21 24 23 26 26 24 25 26 27 31 33 34 36 37 41 44 49 53 53 57 62 66 69 73 78 82 85 88 89 87 84 84 86 90 95 100 106 108 110 112 115 112
29 30 28 27 25 24 25 24 25 27 26 25 27 28 29 33 36 38 39 41 45 44 48 53 59 60 65 68 72 76 80 84 86 89 91 91 87 87 88 92 96 101 105 110 112 113 114 113 113
Wind_Direction
243 245 247 248 249 250 249 249 251 255 256 255 254 255 257 258 260 261 261 260 262 267 270 271 270 271 270 270 271 274 274 275 276 277 278 281 284 283 285 284 286 288 291 292 293 296 298 299 299
242 244 245 247 248 249 248 249 251 252 255 255 256 256 259 256 260 263 262 263 264 266 270 271 272 271 270 271 272 272 273 273 275 278 279 283 284 283 289 284 288 290 291 292 292 295 297 298 299
242 242 245 247 248 251 251 251 251 255 251 253 255 260 262 260 259 260 263 263 266 270 270 272 272 270 271 268 271 271 272 270 274 280 277 282 284 289 290 291 289 291 292 291 292 293 297 298 297
241 243 245 248 250 250 252 251 254 255 258 259 263 259 259 257 258 260 259 263 263 268 269 270 268 265 270 269 270 272 273 273 277 278 283 284 289 284 289 291 289 285 288 295 295 295 296 296 297
240 241 244 248 251 252 253 256 257 255 261 262 263 260 258 258 258 261 264 264 265 267 266 271 268 268 270 273 275 275 279 279 279 281 285 284 289 290 285 284 289 297 296 298 294 293 295 295 291
239 239 242 244 247 249 252 255 260 265 266 263 258 257 259 260 259 259 258 259 260 259 268 278 267 271 271 271 274 273 272 277 281 284 288 293 287 280 283 293 296 296 295 291 289 293 295 289 294
239 238 240 244 245 251 253 254 260 249 258 252 246 253 256 260 258 257 255 257 256 256 268 258 263 272 271 271 268 265 272 276 278 284 288 283 284 286 290 293 291 294 290 289 290 288 289 295 297
240 239 236 240 244 248 258 275 264 246 253 247 253 261 262 251 254 249 249 251 252 236 244 251 258 267 265 259 260 263 272 276 273 278 283 288 288 288 288 288 288 287 292 292 288 288 294 297 300
240 235 232 234 240 246 234 231 251 236 245 246 252 255 252 244 241 240 234 238 218 240 240 244 248 252 255 262 263 264 269 273 273 277 283 284 286 287 284 284 289 290 287 285 290 292 297 300 300
233 231 233 237 235 216 185 204 241 254 250 248 245 248 245 242 234 233 216 201 218 233 233 234 238 249 252 252 260 264 271 278 278 278 281 285 282 282 282 284 286 283 289 290 295 297 299 299 298
231 227 233 225 222 201 197 210 227 246 256 254 248 247 245 237 231 229 215 210 211 227 236 237 243 248 251 256 261 268 274 276 274 277 276 283 280 281 282 282 283 288 290 291 293 296 297 298 296
219 225 225 224 201 187 196 216 221 238 249 285 262 260 249 238 232 233 223 221 221 224 232 237 243 248 249 256 258 263 271 272 275 274 276 278 283 279 281 285 289 289 292 295 296 296 296 295 294
211 213 213 210 205 209 205 221 228 239 244 216 240 253 253 250 246 240 232 226 224 230 231 238 242 245 249 254 262 264 267 269 274 277 280 280 281 285 288 290 292 290 294 294 295 296 299 299 301
203 198 216 224 213 217 220 221 226 237 248 244 230 243 256 250 246 246 244 241 236 238 239 243 247 252 255 259 259 265 272 274 275 279 281 283 282 286 287 291 292 293 295 294 293 299 304 307 306
190 210 220 225 228 221 215 224 230 238 225 224 224 241 234 221 228 245 258 248 240 248 260 261 260 257 259 256 264 265 268 273 275 277 279 283 283 285 289 292 292 292 295 296 298 299 299 296 293
207 214 217 220 224 220 223 231 233 229 236 222 232 214 223 236 252 251 241 252 252 246 246 250 253 261 259 258 266 268 270 275 276 277 282 283 283 287 288 289 290 293 294 297 298 295 294 292 295
205 213 217 225 223 227 225 223 233 230 237 227 230 229 229 230 234 234 248 245 246 247 251 252 257 259 260 269 275 275 277 277 278 282 284 286 288 288 288 287 290 290 290 291 290 291 291 290 296
210 208 218 225 225 225 220 211 212 220 220 219 223 237 238 242 250 253 249 254 257 258 260 260 261 264 266 276 280 283 281 286 282 284 288 287 287 289 288 288 288 288 283 285 287 290 289 289 290
211 215 222 227 207 210 209 213 211 215 217 227 236 236 243 250 253 255 259 255 255 256 258 270 273 274 278 279 279 280 284 282 282 285 285 285 286 283 285 284 285 286 287 288 289 290 291 292 295
216 218 224 219 204 205 211 215 220 225 217 234 247 254 258 255 252 253 256 259 267 266 268 275 277 280 280 281 282 283 282 285 289 283 283 283 282 282 283 286 288 290 290 291 292 294 295 294 293
225 217 207 207 206 211 219 223 237 237 237 248 251 253 253 257 261 269 272 274 269 277 279 278 278 277 277 278 280 283 284 287 290 291 291 289 285 287 290 292 295 298 300 301 299 296 294 294 294
217 221 238 230 220 222 231 233 235 243 251 255 257 260 258 258 266 264 269 271 272 274 272 273 274 274 277 281 288 295 300 300 300 303 303 303 301 300 302 303 302 303 303 302 297 295 292 292 292
222 227 225 222 228 226 245 243 251 258 264 263 269 265 267 270 272 272 272 273 275 273 267 268 273 282 292 300 301 303 307 310 310 312 314 312 309 306 308 307 306 302 300 300 298 296 294 293 292
235 227 233 242 230 242 254 263 259 263 263 274 275 272 273 272 270 271 276 273 264 267 271 278 292 300 302 301 302 305 309 310 316 317 317 318 315 313 307 302 298 296 295 296 297 296 296 297 297
223 228 237 245 246 247 256 264 264 270 260 257 267 271 272 271 264 262 258 262 271 278 285 294 297 300 300 299 303 306 309 314 317 318 317 316 315 313 310 306 305 303 302 302 303 303 303 300 298
231 236 236 238 256 260 259 256 262 255 267 268 261 261 257 255 256 261 266 273 279 285 290 293 294 298 299 303 304 307 310 314 317 317 317 317 316 314 312 311 309 308 308 308 308 306 304 303 302
234 242 251 248 254 253 244 247 248 252 252 250 248 248 252 255 258 267 274 283 285 287 291 295 294 297 299 302 304 308 312 313 315 315 315 315 315 314 312 311 310 308 308 308 307 308 308 305 305
243 245 252 249 240 241 242 244 247 248 244 245 248 254 262 267 272 277 283 286 289 290 291 294 296 298 299 301 304 308 310 313 314 315 315 315 315 313 312 311 311 311 310 310 309 309 308 309 309
242 246 242 240 239 241 241 245 239 238 244 250 258 266 272 276 279 285 287 290 293 291 289 293 295 297 298 300 304 307 309 311 313 314 314 315 314 313 312 312 312 312 311 310 309 309 311 311 310
238 237 238 240 245 247 247 233 234 240 248 258 265 271 276 280 283 286 287 288 291 293 290 290 295 299 301 303 304 306 308 311 313 313 314 314 313 314 314 313 312 311 310 311 311 313 312 311 311
Height
10737 10744 10748 10753 10759 10769 10775 10774 10771 10784 10795 10791 10809 10809 10818 10827 10822 10833 10840 10840 10839 10838 10838 10839 10839 10839 10838 10839 10839 10839 10840 10839 10838 10835 10833 10831 10826 10825 10822 10820 10816 10812 10808 10804 10801 10799 10795 10791 10788
10723 10727 10732 10740 10746 10752 10752 10757 10765 10781 10776 10782 10789 10802 10807 10815 10814 10823 10829 10832 10831 10830 10829 10830 10829 10825 10824 10827 10826 10827 10829 10827 10826 10825 10822 10819 10816 10814 10811 10807 10804 10801 10797 10793 10791 10788 10784 10780 10775
10709 10714 10719 10725 10734 10740 10732 10744 10758 10770 10765 10767 10780 10793 10799 10804 10806 10815 10818 10821 10821 10822 10819 10817 10816 10813 10813 10813 10813 10816 10815 10814 10815 10814 10810 10809 10806 10802 10799 10797 10794 10789 10786 10782 10779 10776 10772 10766 10761
10697 10702 10706 10715 10723 10726 10715 10732 10751 10752 10754 10765 10777 10781 10783 10792 10795 10802 10811 10813 10816 10811 10810 10807 10803 10801 10802 10800 10801 10803 10804 10804 10803 10802 10800 10796 10794 10792 10788 10786 10781 10777 10773 10770 10767 10764 10758 10753 10747
10683 10691 10697 10705 10712 10711 10714 10730 10734 10745 10739 10755 10762 10765 10771 10778 10785 10795 10800 10805 10805 10802 10797 10795 10790 10787 10792 10794 10793 10792 10791 10790 10791 10791 10789 10786 10783 10778 10775 10772 10767 10763 10759 10759 10754 10750 10746 10739 10734
10673 10680 10687 10694 10699 10698 10711 10721 10724 10738 10739 10742 10740 10751 10757 10769 10776 10780 10787 10793 10792 10789 10789 10780 10776 10776 10777 10784 10784 10780 10779 10778 10781 10779 10777 10773 10770 10767 10763 10757 10753 10750 10746 10745 10742 10738 10733 10726 10722
10663 10670 10678 10681 10685 10695 10709 10706 10730 10730 10726 10728 10724 10734 10750 10758 10757 10768 10776 10780 10785 10784 10785 10776 10765 10767 10769 10770 10771 10771 10769 10768 10768 10765 10764 10762 10758 10756 10749 10744 10739 10738 10735 10733 10729 10725 10720 10715 10709
10655 10662 10669 10674 10679 10692 10707 10718 10714 10707 10706 10711 10720 10728 10738 10746 10746 10755 10764 10771 10775 10776 10772 10761 10757 10763 10761 10761 10761 10762 10762 10761 10760 10759 10755 10751 10747 10741 10735 10731 10727 10724 10723 10720 10716 10711 10705 10702 10697
10648 10657 10662 10662 10674 10692 10699 10709 10699 10694 10701 10706 10710 10718 10724 10731 10735 10747 10758 10765 10768 10761 10758 10754 10755 10753 10754 10754 10754 10755 10753 10752 10752 10748 10743 10738 10732 10726 10724 10718 10714 10714 10712 10704 10699 10695 10692 10690 10685
10643 10649 10649 10663 10669 10684 10682 10689 10679 10683 10693 10698 10706 10708 10713 10720 10726 10739 10751 10756 10757 10753 10743 10746 10747 10746 10745 10745 10746 10744 10742 10740 10738 10735 10730 10724 10719 10714 10710 10705 10703 10701 10694 10686 10684 10680 10678 10676 10672
10638 10640 10646 10657 10668 10673 10671 10672 10672 10679 10683 10690 10698 10701 10703 10712 10718 10728 10742 10743 10744 10738 10737 10741 10739 10736 10737 10736 10733 10734 10732 10730 10726 10722 10721 10711 10704 10700 10696 10689 10690 10686 10677 10674 10670 10667 10661 10659 10656
10632 10636 10642 10652 10660 10661 10662 10662 10678 10677 10682 10690 10690 10692 10697 10704 10710 10718 10731 10732 10730 10728 10728 10727 10730 10728 10728 10724 10723 10724 10721 10721 10714 10711 10706 10702 10689 10683 10682 10678 10672 10670 10666 10660 10657 10653 10647 10641 10637
10627 10633 10640 10647 10653 10655 10657 10661 10666 10671 10678 10687 10691 10686 10688 10694 10701 10710 10714 10719 10721 10720 10721 10721 10719 10717 10716 10715 10716 10715 10709 10707 10705 10699 10695 10688 10680 10669 10667 10660 10657 10652 10651 10648 10643 10636 10631 10625 10619
10626 10631 10637 10641 10648 10650 10656 10660 10665 10668 10674 10679 10678 10680 10683 10688 10693 10697 10702 10707 10712 10714 10715 10714 10712 10710 10709 10707 10705 10704 10699 10696 10692 10685 10677 10670 10665 10655 10651 10646 10639 10637 10634 10630 10625 10620 10613 10607 10602
10623 10629 10632 10639 10642 10646 10651 10653 10659 10664 10667 10670 10673 10675 10679 10683 10687 10691 10695 10699 10700 10704 10704 10703 10702 10699 10697 10696 10694 10692 10689 10685 10678 10668 10662 10658 10651 10647 10639 10633 10627 10626 10619 10613 10608 10605 10600 10596 10591
10622 10624 10629 10633 10639 10642 10646 10650 10653 10657 10661 10664 10668 10668 10673 10677 10679 10685 10688 10694 10693 10694 10696 10693 10691 10689 10686 10684 10681 10679 10675 10669 10662 10657 10649 10644 10640 10637 10631 10623 10617 10611 10605 10599 10591 10589 10585 10582 10578
10618 10621 10626 10630 10636 10639 10641 10647 10650 10655 10659 10661 10664 10668 10670 10673 10676 10678 10682 10683 10683 10685 10686 10683 10681 10677 10675 10672 10669 10666 10662 10656 10651 10646 10637 10631 10628 10622 10615 10608 10603 10598 10592 10585 10581 10573 10569 10565 10560
10612 10616 10624 10629 10634 10637 10641 10645 10648 10651 10655 10657 10659 10663 10666 10668 10670 10672 10673 10676 10675 10676 10677 10674 10672 10665 10663 10659 10656 10653 10650 10644 10639 10634 10627 10618 10612 10606 10602 10595 10589 10584 10580 10572 10568 10562 10553 10547 10544
10611 10617 10623 10628 10632 10635 10639 10643 10645 10647 10650 10653 10655 10658 10660 10663 10663 10664 10665 10666 10664 10667 10668 10663 10662 10656 10653 10646 10642 10640 10636 10633 10628 10622 10616 10609 10603 10594 10591 10587 10579 10568 10561 10557 10550 10542 10535 10526 10519
10609 10614 10621 10626 10630 10632 10635 10637 10638 10641 10644 10648 10650 10652 10654 10655 10656 10656 10655 10655 10656 10652 10656 10655 10650 10644 10640 10636 10632 10628 10625 10621 10617 10613 10607 10599 10594 10586 10579 10569 10564 10557 10546 10537 10531 10524 10517 10508 10501
10604 10614 10617 10620 10624 10627 10630 10630 10633 10635 10637 10641 10644 10644 10644 10644 10645 10645 10645 10644 10645 10644 10644 10641 10637 10633 10629 10626 10622 10619 10617 10613 10608 10602 10597 10588 10581 10574 10565 10557 10546 10536 10528 10520 10511 10504 10498 10492 10483
10606 10613 10618 10620 10622 10626 10624 10624 10627 10631 10634 10636 10635 10634 10635 10637 10639 10639 10637 10636 10636 10634 10637 10630 10627 10624 10621 10618 10614 10610 10606 10601 10595 10590 10582 10572 10563 10555 10548 10541 10532 10522 10511 10501 10493 10485 10478 10472 10464
10607 10612 10617 10617 10621 10621 10620 10623 10627 10631 10630 10629 10627 10629 10630 10630 10631 10630 10629 10627 10627 10624 10623 10621 10619 10615 10611 10608 10603 10599 10596 10591 10585 10579 10572 10565 10558 10547 10535 10524 10514 10507 10498 10486 10477 10467 10458 10451 10442
10605 10611 10613 10613 10616 10616 10616 10616 10624 10622 10623 10623 10615 10622 10622 10622 10622 10621 10622 10618 10618 10617 10615 10613 10610 10606 10601 10598 10595 10590 10585 10579 10573 10564 10556 10547 10538 10530 10521 10511 10501 10490 10481 10471 10460 10449 10438 10427 10415
10604 10606 10608 10609 10607 10609 10612 10611 10610 10621 10612 10619 10615 10616 10615 10614 10614 10614 10616 10613 10611 10609 10605 10603 10601 10597 10593 10590 10585 10579 10573 10565 10559 10552 10543 10534 10524 10513 10503 10492 10481 10470 10459 10449 10439 10428 10417 10404 10388
10597 10601 10600 10603 10602 10607 10609 10608 10608 10607 10607 10609 10610 10610 10610 10610 10610 10609 10609 10607 10604 10601 10597 10595 10592 10589 10582 10579 10572 10566 10559 10550 10543 10536 10525 10516 10505 10494 10484 10472 10461 10449 10439 10429 10417 10404 10391 10377 10360
10594 10597 10597 10600 10600 10601 10602 10603 10602 10604 10604 10605 10606 10606 10606 10605 10604 10603 10601 10599 10596 10593 10589 10586 10583 10578 10570 10567 10561 10555 10547 10539 10531 10522 10514 10502 10490 10476 10466 10454 10443 10431 10420 10409 10394 10380 10365 10349 10331
10588 10589 10591 10593 10595 10596 10598 10595 10601 10599 10599 10600 10600 10600 10599 10598 10596 10595 10593 10591 10588 10585 10580 10576 10575 10569 10560 10554 10548 10542 10535 10526 10516 10505 10495 10483 10471 10459 10447 10435 10423 10411 10398 10385 10370 10354 10338 10319 10301
10584 10584 10587 10589 10590 10591 10591 10595 10592 10593 10594 10595 10595 10593 10592 10591 10589 10587 10585 10582 10581 10577 10573 10566 10560 10559 10552 10544 10536 10529 10521 10512 10500 10490 10478 10465 10452 10440 10428 10416 10403 10390 10375 10359 10345 10330 10311 10291 10273
10578 10580 10583 10584 10585 10585 10586 10587 10588 10589 10590 10590 10589 10588 10587 10584 10582 10580 10577 10575 10570 10569 10564 10556 10547 10544 10537 10529 10521 10513 10505 10493 10483 10472 10460 10446 10432 10419 10407 10395 10382 10367 10354 10336 10314 10301 10285 10265 10247